FW4137 Weather Reports


Display with metric or nautical units.
time (UTC)temp
F
wind
direction
speed
MPH
gust
MPH
rain 1hr
in
rain 24hr
in
rain mn
in
humidity
%
barometer
mb
20260504081543 65 99 0.0 0.0 0.00 0.00 0.00 65 1004.4
20260504044527 71 172 0.0 0.0 0.00 0.00 0.00 55 1004.2
20260504043030 72 172 0.0 0.0 0.00 0.00 0.00 52 1004.1
20260504041529 73 172 0.0 0.0 0.00 0.00 0.00 52 1004.1
20260504040026 73 200 0.0 0.0 0.00 0.00 0.00 52 1003.9
20260504034525 75 205 0.0 0.0 0.00 0.00 0.00 52 1003.9
20260504033025 76 205 0.0 0.0 0.00 0.00 0.00 49 1003.8
20260504031526 77 205 0.0 0.0 0.00 0.00 0.00 49 1003.8
20260504030023 78 205 0.0 0.0 0.00 0.00 0.00 50 1003.7
20260504024522 79 205 0.0 0.0 0.00 0.00 0.00 49 1003.7
20260504023022 80 205 0.0 5.0 0.00 0.00 0.00 50 1003.6
20260504021521 80 194 0.0 0.0 0.00 0.00 0.00 48 1003.7
20260504020032 81 178 0.0 4.0 0.00 0.00 0.00 47 1003.7
20260504014518 83 232 0.0 5.0 0.00 0.00 0.00 45 1003.8
20260504013022 83 118 1.0 5.0 0.00 0.00 0.00 42 1003.9
20260504011517 84 186 0.0 8.0 0.00 0.00 0.00 41 1003.9
20260504010015 84 202 2.0 7.0 0.00 0.00 0.00 39 1004.1
20260504004532 85 207 1.0 5.0 0.00 0.00 0.00 39 1004.1
20260504003016 85 211 1.0 6.0 0.00 0.00 0.00 38 1004.3
20260504001526 85 248 0.0 7.0 0.00 0.00 0.00 39 1004.4
20260504000009 85 192 1.0 7.0 0.00 0.00 0.00 37 1004.6
20260503234513 85 271 0.0 7.0 0.00 0.00 0.00 38 1004.7
20260503233006 85 202 1.0 8.0 0.00 0.00 0.00 38 1004.8
20260503231503 85 229 2.0 5.0 0.00 0.00 0.00 38 1005.0
20260503230003 84 146 0.0 7.0 0.00 0.00 0.00 37 1005.2
20260503224611 85 252 3.0 7.0 0.00 0.00 0.00 36 1005.4
20260503223110 84 252 1.0 9.0 0.00 0.00 0.00 38 1005.6
20260503221554 83 208 0.0 9.0 0.00 0.00 0.00 39 1005.7
20260503220052 83 242 0.0 5.0 0.00 0.00 0.00 35 1006.0
20260503214555 83 207 0.0 5.0 0.00 0.00 0.00 37 1006.1
20260503213046 82 235 1.0 9.0 0.00 0.00 0.00 37 1006.3
20260503211541 81 236 2.0 6.0 0.00 0.00 0.00 37 1006.5
20260503210038 81 238 1.0 7.0 0.00 0.00 0.00 37 1006.6
20260503204542 80 194 1.0 9.0 0.00 0.00 0.00 39 1006.9
20260503203033 80 184 0.0 5.0 0.00 0.00 0.00 43 1007.0
20260503201532 79 216 0.0 4.0 0.00 0.00 0.00 36 1007.2
20260503200027 78 117 0.0 5.0 0.00 0.00 0.00 38 1007.5
20260503194525 79 202 0.0 4.0 0.00 0.00 0.00 38 1007.7
20260503193022 78 153 1.0 8.0 0.00 0.00 0.00 38 1007.8
20260503191520 77 110 0.0 6.0 0.00 0.00 0.00 40 1007.9
20260503190017 76 208 0.0 7.0 0.00 0.00 0.00 45 1008.0
20260503184513 75 200 0.0 4.0 0.00 0.00 0.00 44 1008.2
20260503183009 74 190 0.0 3.0 0.00 0.00 0.00 42 1008.3
20260503181522 73 179 0.0 3.0 0.00 0.00 0.00 43 1008.5
20260503180013 73 217 1.0 5.0 0.00 0.00 0.00 42 1008.7
20260503174501 73 175 0.0 3.0 0.00 0.00 0.00 43 1009.0
20260503173107 71 132 0.0 4.0 0.00 0.00 0.00 44 1009.1
20260503171554 70 131 0.0 5.0 0.00 0.00 0.00 47 1009.3
20260503170103 69 142 0.0 3.0 0.00 0.00 0.00 47 1009.5